Location: Unspecified
(0.0000°N, 0.0000°E)
Time: 02:41:38
(UTC+02:00)

Delta 168 - Visible Passes

Search period start: 26 July 2016 00:00
Search period end: 05 August 2016 00:00
Orbit: 394 x 2072 km, 25.3° (Epoch: 25 July)

Date Brightness Start Highest point End Pass type
(mag) Time Alt. Az. Time Alt. Az. Time Alt. Az.
26 Jul 6.9 21:50:12 10° NW 21:56:10 15° NNW 22:01:20 10° NNE visible
27 Jul 7.0 21:40:23 10° NW 21:46:35 16° NNW 21:51:59 10° NNE visible
27 Jul 6.9 23:45:21 10° NNW 23:46:51 11° N 23:46:51 11° N visible
28 Jul 7.0 21:30:32 10° NW 21:36:59 16° N 21:42:39 10° NNE visible
28 Jul 6.8 23:34:17 10° NNW 23:37:45 13° N 23:37:45 13° N visible
29 Jul 7.0 21:20:39 10° NW 21:27:24 16° N 21:33:21 10° NNE visible
29 Jul 6.7 23:23:34 10° NNW 23:28:32 15° N 23:28:35 15° N visible
30 Jul 7.0 21:10:44 10° NW 21:17:47 17° N 21:24:04 10° NNE visible
30 Jul 6.6 23:12:58 10° NNW 23:19:04 17° N 23:19:24 17° N visible
31 Jul 7.0 21:00:47 10° NW 21:08:11 17° N 21:14:48 10° NE visible
31 Jul 6.5 23:02:27 10° NNW 23:09:33 19° N 23:10:10 19° NNE visible
01 Aug 7.0 20:50:50 10° NW 20:58:33 18° N 21:05:32 10° NE visible
01 Aug 6.4 22:51:57 10° NW 23:00:00 22° N 23:00:56 22° NNE visible
02 Aug 7.0 20:40:50 10° NW 20:48:54 19° N 20:56:16 10° NE visible
02 Aug 6.3 22:41:30 10° NW 22:50:23 25° NNE 22:51:41 24° NNE visible
03 Aug 7.2 00:40:53 10° NW 00:41:45 13° NW 00:41:45 13° NW visible
03 Aug 7.0 20:30:51 10° NW 20:39:14 20° N 20:46:59 10° NE visible
03 Aug 6.2 22:31:04 10° NW 22:40:43 28° NNE 22:42:26 27° NNE visible
04 Aug 7.0 00:30:32 10° NW 00:32:29 16° NW 00:32:29 16° NW visible
04 Aug 7.0 20:20:51 10° NW 20:29:32 21° N 20:37:41 10° NE visible
04 Aug 6.1 22:20:40 10° NW 22:31:00 31° NNE 22:33:11 29° NE visible
